TimeCST,TemperatureF,Dew PointF,Humidity,Sea Level PressureIn,VisibilityMPH,Wind Direction,Wind SpeedMPH,Gust SpeedMPH,PrecipitationIn,Events,Conditions,WindDirDegrees,DateUTC
12:53 AM,19.0,10.0,68,30.32,10.0,North,9.2,-,N/A,,Mostly Cloudy,350,2014-02-02 06:53:00
1:53 AM,18.0,7.0,62,30.33,10.0,North,11.5,-,N/A,,Clear,360,2014-02-02 07:53:00
2:53 AM,16.0,6.1,65,30.37,10.0,North,12.7,-,N/A,,Clear,350,2014-02-02 08:53:00
3:53 AM,15.1,5.0,64,30.37,10.0,North,8.1,-,N/A,,Clear,360,2014-02-02 09:53:00
4:53 AM,12.9,3.0,65,30.39,10.0,North,13.8,-,N/A,,Clear,10,2014-02-02 10:53:00
5:53 AM,10.9,1.9,67,30.40,10.0,NNE,8.1,-,N/A,,Clear,20,2014-02-02 11:53:00
6:53 AM,9.0,1.0,70,30.41,10.0,Calm,Calm,-,N/A,,Clear,0,2014-02-02 12:53:00
7:53 AM,10.0,1.9,70,30.43,10.0,NNW,5.8,-,N/A,,Clear,340,2014-02-02 13:53:00
8:53 AM,10.9,1.9,67,30.43,10.0,North,4.6,-,N/A,,Clear,10,2014-02-02 14:53:00
9:53 AM,12.9,3.0,65,30.44,10.0,North,5.8,-,N/A,,Clear,10,2014-02-02 15:53:00
10:53 AM,16.0,3.0,57,30.46,10.0,NE,4.6,-,N/A,,Clear,40,2014-02-02 16:53:00
11:53 AM,18.0,3.9,54,30.44,10.0,Variable,3.5,-,N/A,,Clear,0,2014-02-02 17:53:00
12:53 PM,19.0,5.0,54,30.43,10.0,Calm,Calm,-,N/A,,Clear,0,2014-02-02 18:53:00
1:53 PM,23.0,6.1,48,30.41,10.0,Calm,Calm,-,N/A,,Clear,0,2014-02-02 19:53:00
2:53 PM,25.0,6.1,45,30.39,10.0,Variable,3.5,-,N/A,,Clear,0,2014-02-02 20:53:00
3:53 PM,25.0,7.0,46,30.38,10.0,NNW,3.5,-,N/A,,Clear,340,2014-02-02 21:53:00
4:53 PM,23.0,6.1,48,30.38,10.0,North,5.8,-,N/A,,Clear,360,2014-02-02 22:53:00
5:53 PM,18.0,6.1,60,30.38,10.0,North,4.6,-,N/A,,Clear,10,2014-02-02 23:53:00
6:53 PM,16.0,3.9,59,30.38,10.0,NNE,4.6,-,N/A,,Clear,30,2014-02-03 00:53:00
7:53 PM,17.1,3.0,54,30.38,10.0,Calm,Calm,-,N/A,,Clear,0,2014-02-03 01:53:00
8:53 PM,12.0,5.0,73,30.38,10.0,Calm,Calm,-,N/A,,Clear,0,2014-02-03 02:53:00
9:53 PM,10.9,3.0,70,30.38,10.0,Calm,Calm,-,N/A,,Clear,0,2014-02-03 03:53:00
10:53 PM,8.1,1.9,76,30.37,10.0,Calm,Calm,-,N/A,,Clear,0,2014-02-03 04:53:00
11:53 PM,7.0,1.9,80,30.37,9.0,Calm,Calm,-,N/A,,Clear,0,2014-02-03 05:53:00